Location: Buckeye Ditch
(40.9104°N, 122.9517°W)
Time: 19:35:01
(UTC+00:00)

BlueWalker 3 - Pass Details

Date: 26 June 2024
Orbit: 480 x 491 km, 53.2° (Epoch: 24 July)

Event Time Altitude Azimuth Distance (km) Brightness Sun altitude
Rises 04:14:23 0° 271° (W) 2,541 6.5 -5.0°
Reaches altitude 10° 04:16:57 10° 289° (WNW) 1,660 6.0 -5.3°
Maximum altitude 04:19:49 20° 339° (NNW) 1,152 4.7 -5.8°
Drops below altitude 10° 04:22:41 10° 29° (NNE) 1,660 4.7 -6.2°
Sets 04:25:16 0° 46° (NE) 2,540 5.4 -6.6°
